Location: Cahas Mountain Overlook
(37.0833°N, 80.1000°W)
Time: 10:32:57
(UTC-05:00)

S-56A Canister/Altair - Pass Details

Date: 06 December 2023
Orbit: 640 x 2488 km, 38.9° (Epoch: 25 February)

Event Time Altitude Azimuth Distance (km) Brightness Sun altitude
Rises 09:43:53 0° 214° (SSW) 3,825 11.4 21.0°
Reaches altitude 10° 09:47:26 10° 200° (SSW) 2,589 10.8 21.4°
Maximum altitude 09:51:53 22° 150° (SSE) 1,604 12.4 22.0°
Drops below altitude 10° 09:55:35 10° 99° (E) 2,116 10.5 22.4°
Sets 09:58:10 0° 83° (E) 2,956 10.9 22.7°
